Location: Crescent Station
(42.7984°N, 73.7337°W)
Time: 15:36:25
(UTC+00:00)

Daily predictions for brighter satellites

Satellite Brightness Start Highest point End
(mag) Time Altitude Azimuth Time Altitude Azimuth Time Altitude Azimuth
IRS-1C Rocket 4.1 21:53:17 10° SSE 21:58:29 63° ENE 22:03:43 10° N
H-2A R/B 3.1 21:58:36 10° SE 22:02:14 41° ENE 22:05:51 10° N
Okean-O 3.3 21:58:31 10° SE 22:02:27 32° ENE 22:06:23 10° N
Cosmos 1980 Rocket 4.0 22:02:28 10° ESE 22:03:26 10° E 22:04:25 10° E
CORIOLIS 4.4 21:58:54 10° SE 22:04:05 50° ENE 22:09:19 10° N
Genesis I 3.6 22:01:10 10° SW 22:05:10 68° NW 22:09:10 10° NNE
Meteor 2-10 Rocket 4.2 22:02:04 10° SSW 22:06:59 57° WNW 22:11:58 10° N
Cosmos 1437 3.7 22:04:10 10° NNW 22:07:09 49° W 22:10:08 10° S
Cosmos 2227 Rocket 2.6 22:02:31 10° NNW 22:07:54 42° ENE 22:13:13 10° SE
Cosmos 2297 Rocket 2.5 22:02:33 10° NNW 22:07:59 45° ENE 22:13:23 10° SE
Cosmos 1743 Rocket 3.9 22:11:35 10° NNW 22:15:56 70° W 22:20:16 10° S
Cosmos 1805 Rocket 3.8 22:11:50 10° N 22:16:01 44° ENE 22:20:12 10° SSE
Cosmos 773 Rocket 4.0 22:18:05 10° SSW 22:23:15 85° WNW 22:28:29 10° NNE
Cosmos 2369 4.4 22:19:27 10° SSE 22:24:28 34° ESE 22:29:31 10° NE
Cosmos 1862 4.2 22:26:10 10° NNE 22:29:34 26° ENE 22:32:57 10° SE
Okean O Rocket 4.2 22:26:35 10° SSW 22:30:11 25° W 22:33:49 10° NW
AQUARIUS 4.2 22:25:54 10° SSE 22:30:23 86° WSW 22:34:56 10° NNW
COBE Rocket 3.7 22:28:46 10° NNE 22:33:34 71° E 22:38:14 10° S
Cosmos 2082 4.0 22:30:36 10° NNW 22:35:58 43° ENE 22:41:17 10° SE
BREEZE-M DEB (TANK) 4.3 22:36:09 10° WSW 22:40:11 81° NNW 22:51:43 15° ENE
PSLV R/B 2.9 22:39:26 10° W 22:41:56 56° S 22:43:04 27° ESE
Cosmos 1697 Rocket 3.0 22:37:01 10° S 22:42:20 44° ESE 22:47:22 11° NE
Cosmos 2278 4.3 22:38:58 10° S 22:44:05 36° ESE 22:48:14 15° NE
Cosmos 1538 Rocket 4.2 22:39:07 10° SSW 22:44:21 74° WNW 22:49:42 10° NNE
Cosmos 1633 2.7 22:41:14 10° N 22:44:46 47° ENE 22:48:17 10° SSE
Cosmos 1633 Rocket 3.5 22:41:09 10° N 22:45:18 39° ENE 22:49:27 10° SSE
ATLAS 5 CENTAUR R/B 2.4 22:39:28 10° NW 22:45:21 85° NE 22:52:05 10° SE
Cosmos 2084 4.4 22:42:20 10° NW 22:46:29 50° WSW 22:50:32 10° SSE
NOAA 12 4.1 22:45:03 10° SSE 22:50:23 87° WSW 22:55:46 10° NNW
Meteor 2-20 Rocket 4.4 22:44:55 10° S 22:51:00 82° E 22:57:11 10° N
GEOS 3 Rocket 4.1 22:49:18 10° NNE 22:54:25 59° NW 22:59:35 10° SW
COSMO-SKYMED 1 2.5 22:51:04 10° NNE 22:55:23 62° E 22:59:41 10° S
Cosmos 1666 Rocket 3.4 22:52:41 10° N 22:57:03 65° E 23:01:21 10° SSE
Sich 1 3.0 22:53:12 10° N 22:57:34 89° W 23:01:57 10° S
Cosmos 1328 Rocket 3.9 22:55:19 10° SSE 22:59:30 43° E 23:02:51 15° NNE
Cosmos 1151 Rocket 3.4 22:57:34 10° SSE 23:01:39 41° E 23:04:08 21° NNE
Cosmos 1356 Rocket 4.0 22:58:44 10° SSW 23:02:49 60° WNW 23:07:01 10° N
Cosmos 1464 Rocket 3.9 22:57:51 10° N 23:04:03 81° E 23:10:10 10° S
Cosmos 1891 Rocket 4.4 22:57:49 10° N 23:04:13 81° E 23:10:26 10° S
YAOGAN 6 2.3 23:03:36 10° SSE 23:07:06 78° ENE 23:10:35 10° N
APEX 4.3 23:05:42 10° S 23:07:59 25° SE 23:07:59 25° SE
Envisat 3.3 23:05:48 10° S 23:10:51 70° WSW 23:15:57 10° NNW
Cosmos 1656 4.1 23:06:29 10° SW 23:11:58 62° WNW 23:17:26 10° NNE
Lacrosse 4 Rocket 1.3 23:09:11 10° SSW 23:13:16 79° WNW 23:15:21 28° NNE
ERBS 2.9 23:10:53 10° WSW 23:14:08 51° NW 23:14:58 39° N
CZ-4 R/B 4.4 23:11:15 10° SSE 23:15:23 88° WSW 23:19:33 10° NNW
NOAA 11 4.3 23:11:00 10° SE 23:16:09 47° ENE 23:21:20 10° N
SeaSat 1 3.0 23:13:15 10° SSE 23:18:07 59° WSW 23:22:59 10° NW
CSL-04 Debris 4.1 23:14:36 10° SSE 23:20:04 75° ENE 23:25:35 10° N
USA 215 3.9 23:18:12 29° ENE 23:20:31 38° NNE 23:26:27 10° NW
YAOGAN 1 2.4 23:16:57 10° SSE 23:21:15 76° ENE 23:25:35 10° N
CZ-4 R/B 1.5 23:18:47 10° S 23:22:57 78° WSW 23:27:04 10° NNW
Cosmos 1470 Rocket 3.5 23:23:32 10° N 23:28:01 63° E 23:29:51 34° SSE
USA 116 4.2 23:25:07 13° NNE 23:29:22 89° WNW 23:34:28 10° SSW
Cosmos 1371 Rocket 4.0 23:24:32 10° NNW 23:29:40 54° ENE 23:30:25 50° E
NOSS 2-3 (E) 3.6 23:25:22 10° SW 23:29:41 85° NW 23:31:17 42° NNE
NOSS 3-1 (A) 3.8 23:32:01 10° SW 23:37:28 58° NW 23:41:22 23° NNE
CSL-04 Rocket 3.7 23:32:06 10° S 23:37:29 79° WSW 23:42:49 10° NNW
NOSS 3-1 (C) 4.4 23:32:40 10° WSW 23:37:56 40° NW 23:42:29 17° NNE
NOSS 2-3 (D) 3.7 23:34:51 10° SW 23:39:11 76° NW 23:40:18 51° NNE
Cosmos 397 4.3 23:36:45 10° NNW 23:40:50 87° WSW 23:40:55 85° S
Cosmos 2112 Rocket 4.0 23:36:54 10° SSW 23:42:05 80° WNW 23:44:38 31° NNE
Cosmos 1980 Rocket 2.0 23:40:47 10° SSW 23:46:26 80° ESE 23:47:52 52° NE
Cosmos 1680 Rocket 4.0 23:44:10 10° SSW 23:49:17 59° WNW 23:52:26 24° N
Cosmos 724 4.1 23:45:06 10° NNW 23:50:59 88° ENE 23:52:21 55° SE
Cosmos 2227 Rocket 4.1 23:46:55 10° NW 23:51:45 30° WSW 23:56:33 10° SSW
Cosmos 2297 Rocket 4.2 23:47:05 10° NW 23:51:46 27° WSW 23:56:26 10° SSW
Ariane Rocket 3.5 23:55:14 45° N 23:55:14 45° N 23:58:48 10° N
Cosmos 158 Rocket 3.8 23:49:10 10° SSW 23:54:30 86° ESE 23:54:42 82° NE
